Weather History for Keene, NH

Change the Weather History Date:

Wednesday, December 19, 2012

  Actual Average Record
Temperature  
Mean Temperature 38 °F -  
Max Temperature 41 °F 32 °F 52 °F (1967)
Min Temperature 35 °F 13 °F -10 °F (1942)
Degree Days  
Heating Degree Days 27    
Moisture  
Dew Point 30 °F    
Average Humidity 72    
Maximum Humidity 100    
Minimum Humidity 61    
Precipitation  
Precipitation 0.00 in - - ()
Sea Level Pressure  
Sea Level Pressure 29.74 in    
Wind  
Wind Speed 10 mph (ENE)    
Max Wind Speed 10 mph    
Max Gust Speed -    
Visibility 10 miles    
Events      
Averages and records for this station are not official NWS values.
T = Trace of Precipitation, MM = Missing Value Source: NWS Daily Summary

Daily Weather History Graph

Daily Weather History Graph

Search for Another Location

Airport:

Trip Planner

Search our weather history database for the weather conditions in past years. The results will help you decide how hot, cold, wet, or windy it might be!

Date:

Astronomy

Dec. 19, 2012 Rise Set
Actual Time 7:15 AM EST 4:17 PM EST
Civil Twilight 6:43 AM EST 4:49 PM EST
Nautical Twilight 6:07 AM EST 5:25 PM EST
Astronomical Twilight 5:33 AM EST 5:59 PM EST
Moon 11:14 AM EST (12/19) 11:52 PM EST (12/19)
Length of Visible Light 10h 05m
Length of Day
9h 01m
Waxing Crescent, 45% of the Moon is Illuminated
Dec 19
Waxing Crescent
Dec 20
First Quarter
Dec 28
Full
Jan 4
Last Quarter
Jan 11
New

Hourly Weather History & Observations

Time (EST) Temp. Windchill Dew Point Humidity Pressure Visibility Wind Dir Wind Speed Gust Speed Precip Events Conditions
12:35 AM 35.6 °F - 35.6 °F 100% 29.48 in 7.0 mi North - - N/A   Overcast
12:55 AM 35.6 °F - 33.8 °F 93% 29.48 in 5.0 mi North - - N/A   Overcast
1:15 AM 35.6 °F - 35.6 °F 100% 29.49 in 9.0 mi North - - N/A   Overcast
1:55 AM 35.6 °F - 33.8 °F 93% 29.49 in 3.0 mi North - - N/A   Mostly Cloudy
2:15 AM 37.4 °F - 35.6 °F 93% 29.50 in 10.0 mi North - - N/A   Overcast
2:35 AM 37.4 °F - 33.8 °F 87% 29.50 in 10.0 mi North - - N/A   Overcast
2:55 AM 37.4 °F - 33.8 °F 87% 29.51 in 10.0 mi North - - N/A   Overcast
3:15 AM 37.4 °F - 33.8 °F 87% 29.51 in 10.0 mi North - - N/A   Overcast
3:35 AM 37.4 °F - 32.0 °F 81% 29.52 in 10.0 mi North - - N/A   Overcast
3:55 AM 37.4 °F - 32.0 °F 81% 29.53 in 10.0 mi North - - N/A   Overcast
4:15 AM 37.4 °F - 32.0 °F 81% 29.53 in 10.0 mi North - - N/A   Overcast
4:35 AM 37.4 °F - 30.2 °F 75% 29.53 in 10.0 mi North - - N/A   Mostly Cloudy
4:55 AM 37.4 °F - 30.2 °F 75% 29.54 in 10.0 mi North - - N/A   Scattered Clouds
5:15 AM 37.4 °F - 30.2 °F 75% 29.55 in 10.0 mi North - - N/A   Mostly Cloudy
5:35 AM 37.4 °F - 30.2 °F 75% 29.55 in 10.0 mi North - - N/A   Overcast
5:55 AM 37.4 °F - 30.2 °F 75% 29.56 in 10.0 mi North - - N/A   Overcast
6:15 AM 37.4 °F - 30.2 °F 75% 29.57 in 10.0 mi North - - N/A   Overcast
6:35 AM 37.4 °F - 30.2 °F 75% 29.58 in 10.0 mi North - - N/A   Overcast
7:15 AM 37.4 °F - 30.2 °F 75% 29.59 in 10.0 mi North - - N/A   Overcast
7:55 AM 37.4 °F - 30.2 °F 75% 29.61 in 10.0 mi North - - N/A   Overcast
8:15 AM 37.4 °F - 30.2 °F 75% 29.62 in 10.0 mi North - - N/A   Overcast
9:15 AM 39.2 °F - 30.2 °F 70% 29.64 in 10.0 mi North - - N/A   Overcast
9:35 AM 39.2 °F - 30.2 °F 70% 29.64 in 10.0 mi North - - N/A   Mostly Cloudy
9:55 AM 39.2 °F - 30.2 °F 70% 29.64 in 10.0 mi North - - N/A   Mostly Cloudy
10:15 AM 41.0 °F - 30.2 °F 65% 29.65 in 10.0 mi North - - N/A   Overcast
10:35 AM 41.0 °F - 28.4 °F 61% 29.65 in 10.0 mi North - - N/A   Overcast
10:55 AM 41.0 °F - 30.2 °F 65% 29.66 in 10.0 mi North - - N/A   Overcast
11:15 AM 41.0 °F - 30.2 °F 65% 29.67 in 10.0 mi North - - N/A   Overcast
11:35 AM 41.0 °F - 28.4 °F 61% 29.67 in 10.0 mi North - - N/A   Overcast
11:55 AM 41.0 °F - 28.4 °F 61% 29.69 in 10.0 mi North - - N/A   Overcast
12:35 PM 41.0 °F - 28.4 °F 61% 29.72 in 10.0 mi North - - N/A   Overcast
12:55 PM 41.0 °F - 28.4 °F 61% 29.73 in 10.0 mi North - - N/A   Overcast
1:15 PM 41.0 °F - 28.4 °F 61% 29.73 in 10.0 mi North - - N/A   Overcast
1:35 PM 41.0 °F - 28.4 °F 61% 29.74 in 10.0 mi North - - N/A   Overcast
1:55 PM 41.0 °F - 28.4 °F 61% 29.75 in 10.0 mi North - - N/A   Overcast
2:15 PM 41.0 °F - 28.4 °F 61% 29.76 in 10.0 mi North - - N/A   Overcast
3:15 PM 41.0 °F - 28.4 °F 61% 29.80 in 10.0 mi North - - N/A   Overcast
3:35 PM 41.0 °F - 28.4 °F 61% 29.81 in 10.0 mi North - - N/A   Overcast
3:55 PM 41.0 °F - 28.4 °F 61% 29.84 in 10.0 mi North - - N/A   Overcast
4:15 PM 39.2 °F - 28.4 °F 65% 29.85 in 10.0 mi North - - N/A   Overcast
4:35 PM 39.2 °F - 28.4 °F 65% 29.85 in 10.0 mi North - - N/A   Overcast
4:55 PM 39.2 °F - 30.2 °F 70% 29.86 in 10.0 mi North - - N/A   Overcast
5:15 PM 39.2 °F - 30.2 °F 70% 29.87 in 10.0 mi North - - N/A   Overcast
5:35 PM 39.2 °F - 28.4 °F 65% 29.88 in 10.0 mi North - - N/A   Overcast
5:55 PM 39.2 °F - 28.4 °F 65% 29.90 in 10.0 mi North - - N/A   Overcast
6:15 PM 39.2 °F - 28.4 °F 65% 29.91 in 10.0 mi North - - N/A   Overcast
6:35 PM 39.2 °F - 30.2 °F 70% 29.92 in 10.0 mi North - - N/A   Overcast
7:35 PM 39.2 °F - 28.4 °F 65% 29.96 in 10.0 mi North - - N/A   Overcast
8:15 PM 37.4 °F - 28.4 °F 70% 29.97 in 10.0 mi North - - N/A   Overcast
8:35 PM 37.4 °F - 30.2 °F 75% 29.99 in 10.0 mi North - - N/A   Overcast
8:55 PM 37.4 °F - 30.2 °F 75% 30.00 in 10.0 mi North - - N/A   Overcast
9:15 PM 37.4 °F - 30.2 °F 75% 30.00 in 10.0 mi North - - N/A   Overcast
9:35 PM 37.4 °F - 30.2 °F 75% 30.00 in 10.0 mi North - - N/A   Overcast
9:55 PM 37.4 °F - 30.2 °F 75% 30.01 in 10.0 mi North - - N/A   Overcast
10:15 PM 37.4 °F - 28.4 °F 70% 30.02 in 10.0 mi North - - N/A   Overcast
10:35 PM 37.4 °F - 30.2 °F 75% 30.03 in 10.0 mi North - - N/A   Overcast
10:55 PM 37.4 °F - 28.4 °F 70% 30.04 in 10.0 mi North - - N/A   Overcast
11:15 PM 37.4 °F - 28.4 °F 70% 30.05 in 10.0 mi North - - N/A   Overcast
11:35 PM 37.4 °F - 28.4 °F 70% 30.06 in 10.0 mi North - - N/A   Overcast
11:55 PM 37.4 °F 30.3 °F 26.6 °F 65% 30.06 in 10.0 mi ENE 10.4 mph - N/A   Overcast